DW3478 Weather Reports


Display with metric or nautical units.
time (UTC)temp
F
wind
direction
speed
MPH
gust
MPH
rain 1hr
in
rain 24hr
in
rain mn
in
humidity
%
barometer
mb
20260831132307 76 236 4.0 8.0 0.00 0.00 0.00 75 1022.0
20260831130805 77 228 5.0 9.0 0.00 0.00 0.00 74 1022.0
20260831130305 78 230 3.0 9.0 0.00 0.00 0.00 72 1022.0
20260831125306 77 191 3.0 7.0 0.00 0.00 0.00 74 1022.0
20260831124805 76 220 5.0 8.0 0.00 0.00 0.00 73 1022.0
20260831124306 78 245 5.0 9.0 0.00 0.00 0.00 70 1022.0
20260831122806 78 205 3.0 6.0 0.00 0.00 0.00 67 1022.0
20260831122306 77 231 4.0 7.0 0.00 0.00 0.00 70 1022.0
20260831121806 78 200 5.0 6.0 0.00 0.00 0.00 67 1022.0
20260831121305 79 164 4.0 6.0 0.00 0.00 0.00 66 1022.0
20260831120806 78 171 3.0 6.0 0.00 0.00 0.00 70 1022.0
20260831112806 74 226 3.0 6.0 0.00 0.00 0.00 75 1022.0
20260831110305 75 199 2.0 5.0 0.00 0.00 0.00 73 1022.0
20260831105805 75 260 2.0 3.0 0.00 0.00 0.00 74 1022.0
20260831105306 76 207 2.0 5.0 0.00 0.00 0.00 72 1022.0
20260831104805 75 202 3.0 7.0 0.00 0.00 0.00 73 1022.0
20260831104306 75 233 2.0 5.0 0.00 0.00 0.00 77 1022.0
20260831103805 74 230 3.0 5.0 0.00 0.00 0.00 76 1022.0
20260831103305 74 255 3.0 5.0 0.00 0.00 0.00 76 1022.0
20260831094805 73 247 2.0 3.0 0.00 0.00 0.00 78 1022.0
20260831094305 73 247 0.0 2.0 0.00 0.00 0.00 79 1022.0
20260831093805 72 248 3.0 3.0 0.00 0.00 0.00 80 1022.0
20260831091305 73 218 1.0 3.0 0.00 0.00 0.00 78 1022.0
20260831090805 73 263 1.0 3.0 0.00 0.00 0.00 79 1022.0
20260831090305 72 262 0.0 2.0 0.00 0.00 0.00 80 1022.0
20260831085805 73 272 2.0 3.0 0.00 0.00 0.00 79 1022.0
20260831085306 73 252 3.0 5.0 0.00 0.00 0.00 78 1022.0
20260831084306 72 271 2.0 5.0 0.00 0.00 0.00 79 1022.0
20260831083805 73 273 0.0 1.0 0.00 0.00 0.00 80 1022.0
20260831083305 72 275 1.0 3.0 0.00 0.00 0.00 82 1022.0
20260831082806 72 276 0.0 3.0 0.00 0.00 0.00 81 1022.0
20260831080805 71 263 0.0 2.0 0.00 0.00 0.00 83 1021.0
20260831080305 71 269 0.0 1.0 0.00 0.00 0.00 84 1021.0
20260831075805 70 297 0.0 0.0 0.00 0.00 0.00 88 1021.0
20260831074805 69 300 0.0 1.0 0.00 0.00 0.00 89 1021.0
20260831074305 68 317 0.0 1.0 0.00 0.00 0.00 89 1021.0
20260831073805 68 317 0.0 1.0 0.00 0.00 0.00 89 1021.0
20260831072306 67 323 0.0 0.0 0.00 0.00 0.00 88 1021.0
20260831071805 67 323 0.0 1.0 0.00 0.00 0.00 88 1021.0
20260831065306 67 255 1.0 3.0 0.00 0.00 0.00 88 1021.0
20260831064805 67 351 1.0 2.0 0.00 0.00 0.00 88 1021.0
20260831064306 67 343 1.0 2.0 0.00 0.00 0.00 88 1021.0
20260831063305 67 335 0.0 1.0 0.00 0.00 0.00 88 1020.0
20260831062805 67 342 0.0 2.0 0.00 0.00 0.00 88 1020.0
20260831055805 67 346 1.0 3.0 0.00 0.00 0.00 87 1020.0
20260831055306 67 21 1.0 2.0 0.00 0.00 0.00 87 1020.0
20260831054805 67 11 0.0 2.0 0.00 0.00 0.00 88 1020.0
20260831053305 67 336 0.0 1.0 0.00 0.00 0.00 87 1020.0
20260831051805 67 350 1.0 2.0 0.00 0.00 0.00 87 1020.0
20260831050806 67 10 0.0 2.0 0.00 0.00 0.00 87 1021.0
20260831050304 67 4 0.0 2.0 0.00 0.00 0.00 87 1021.0
20260831045805 67 0 0.0 1.0 0.00 0.00 0.00 87 1021.0
20260831040805 67 333 0.0 2.0 0.00 0.00 0.00 86 1021.0
20260831040305 67 11 0.0 2.0 0.00 0.00 0.00 87 1021.0
20260831034305 67 323 0.0 2.0 0.00 0.00 0.00 86 1021.0
20260831033805 67 323 0.0 1.0 0.00 0.00 0.00 86 1021.0
20260831033305 67 343 0.0 1.0 0.00 0.00 0.00 86 1021.0
20260831032804 67 357 1.0 2.0 0.00 0.00 0.00 86 1021.0
20260831030805 67 4 0.0 1.0 0.00 0.00 0.00 85 1021.0
20260831030305 67 8 0.0 2.0 0.00 0.00 0.00 85 1021.0
20260831024804 67 326 0.0 1.0 0.00 0.00 0.00 85 1021.0
20260831024305 67 8 0.0 2.0 0.00 0.00 0.00 85 1021.0
20260831023804 67 17 0.0 1.0 0.00 0.00 0.00 85 1022.0
20260831023305 67 17 0.0 2.0 0.00 0.00 0.00 85 1022.0
20260831022805 67 8 0.0 1.0 0.00 0.00 0.00 85 1022.0
20260831022306 67 2 0.0 1.0 0.00 0.00 0.00 85 1022.0
20260831021805 67 8 0.0 1.0 0.00 0.00 0.00 85 1022.0
20260831021305 67 13 0.0 1.0 0.00 0.00 0.00 85 1022.0
20260831020805 67 26 1.0 2.0 0.00 0.00 0.00 85 1022.0
20260831020305 67 15 1.0 3.0 0.00 0.00 0.00 85 1022.0
20260831015805 67 2 0.0 2.0 0.00 0.00 0.00 84 1022.0
20260831015306 68 7 0.0 2.0 0.00 0.00 0.00 85 1022.0
20260831014804 68 0 0.0 1.0 0.00 0.00 0.00 85 1022.0
20260831014305 68 12 0.0 1.0 0.00 0.00 0.00 85 1022.0
20260831012306 68 20 0.0 1.0 0.00 0.00 0.00 85 1022.0
20260831011805 68 352 0.0 2.0 0.00 0.00 0.00 85 1022.0
20260831003305 68 21 1.0 2.0 0.00 0.00 0.00 85 1022.0
20260831002805 68 29 1.0 1.0 0.00 0.00 0.00 85 1022.0
20260831002306 68 5 0.0 1.0 0.00 0.00 0.00 85 1022.0
20260831000805 68 13 0.0 1.0 0.00 0.00 0.00 85 1022.0
20260831000304 68 15 0.0 2.0 0.00 0.00 0.00 85 1022.0
20260830234805 69 289 0.0 0.0 0.00 0.00 0.00 85 1022.0
20260830230804 69 305 1.0 3.0 0.00 0.00 0.00 84 1022.0
20260830230305 69 331 0.0 1.0 0.00 0.00 0.00 84 1022.0
20260830225306 69 21 1.0 2.0 0.00 0.00 0.00 84 1022.0
20260830224804 69 22 1.0 3.0 0.00 0.00 0.00 84 1022.0
20260830224305 69 15 0.0 0.0 0.00 0.00 0.00 83 1022.0
20260830223804 69 15 1.0 3.0 0.00 0.00 0.00 83 1022.0
20260830223304 69 35 1.0 2.0 0.00 0.00 0.00 83 1022.0
20260830222805 69 35 0.0 3.0 0.00 0.00 0.00 82 1022.0
20260830221304 69 37 2.0 3.0 0.00 0.00 0.00 82 1022.0
20260830220805 69 25 0.0 2.0 0.00 0.00 0.00 81 1022.0
20260830220305 69 25 1.0 3.0 0.00 0.00 0.00 81 1022.0
20260830215805 69 23 1.0 3.0 0.00 0.00 0.00 81 1022.0
20260830215305 70 33 0.0 2.0 0.00 0.00 0.00 81 1022.0
20260830214805 70 31 0.0 2.0 0.00 0.00 0.00 81 1022.0
20260830213805 70 74 0.0 3.0 0.00 0.00 0.00 80 1022.0
20260830213305 70 42 1.0 3.0 0.00 0.00 0.00 80 1022.0
20260830212805 70 35 1.0 3.0 0.00 0.00 0.00 79 1022.0
20260830210304 71 33 0.0 2.0 0.00 0.00 0.00 77 1021.0
20260830205804 71 0 1.0 2.0 0.00 0.00 0.00 77 1021.0
20260830205306 71 44 0.0 2.0 0.00 0.00 0.00 77 1021.0
20260830201804 72 200 1.0 3.0 0.00 0.00 0.00 76 1021.0
20260830201305 72 200 1.0 2.0 0.00 0.00 0.00 76 1021.0
20260830200805 72 187 1.0 3.0 0.00 0.00 0.00 75 1021.0
20260830200305 72 220 0.0 1.0 0.00 0.00 0.00 75 1021.0
20260830195804 72 220 0.0 3.0 0.00 0.00 0.00 75 1021.0
20260830195305 72 220 2.0 3.0 0.00 0.00 0.00 75 1021.0
20260830193305 73 239 0.0 3.0 0.00 0.00 0.00 74 1021.0
20260830192805 73 201 2.0 3.0 0.00 0.00 0.00 74 1021.0
20260830192305 73 235 1.0 3.0 0.00 0.00 0.00 73 1021.0
20260830190304 74 233 2.0 3.0 0.00 0.00 0.00 72 1021.0
20260830185805 74 333 2.0 5.0 0.00 0.00 0.00 72 1021.0
20260830185306 74 200 3.0 5.0 0.00 0.00 0.00 72 1021.0
20260830184806 74 251 4.0 6.0 0.00 0.00 0.00 71 1021.0
20260830184304 74 208 3.0 6.0 0.00 0.00 0.00 71 1021.0
20260830183805 74 218 3.0 5.0 0.00 0.00 0.00 72 1021.0
20260830183304 74 252 3.0 6.0 0.00 0.00 0.00 71 1021.0
20260830182805 74 257 3.0 5.0 0.00 0.00 0.00 71 1021.0
20260830180805 76 258 1.0 5.0 0.00 0.00 0.00 68 1021.0
20260830174804 76 265 3.0 7.0 0.00 0.00 0.00 67 1021.0
20260830174305 76 285 2.0 6.0 0.00 0.00 0.00 67 1021.0
20260830171304 77 270 4.0 8.0 0.00 0.00 0.00 64 1021.0
20260830170805 77 270 3.0 9.0 0.00 0.00 0.00 66 1021.0
20260830170304 77 268 3.0 7.0 0.00 0.00 0.00 65 1021.0
20260830165804 77 243 3.0 9.0 0.00 0.00 0.00 65 1021.0
20260830165306 76 275 5.0 7.0 0.00 0.00 0.00 67 1021.0
20260830164804 76 257 4.0 8.0 0.00 0.00 0.00 67 1021.0
20260830164305 76 259 5.0 8.0 0.00 0.00 0.00 66 1021.0
20260830163804 76 242 5.0 9.0 0.00 0.00 0.00 66 1021.0
20260830163304 77 272 3.0 6.0 0.00 0.00 0.00 67 1021.0
20260830162804 77 267 4.0 10.0 0.00 0.00 0.00 65 1021.0
20260830162306 76 212 3.0 7.0 0.00 0.00 0.00 67 1021.0
20260830161804 76 208 4.0 8.0 0.00 0.00 0.00 66 1021.0
20260830161304 76 230 5.0 9.0 0.00 0.00 0.00 66 1021.0
20260830160804 77 192 5.0 8.0 0.00 0.00 0.00 65 1021.0
20260830160304 76 251 3.0 7.0 0.00 0.00 0.00 66 1021.0
20260830155804 76 218 4.0 8.0 0.00 0.00 0.00 66 1021.0
20260830155306 76 279 4.0 7.0 0.00 0.00 0.00 68 1021.0
20260830154804 76 263 4.0 7.0 0.00 0.00 0.00 67 1021.0
20260830154305 77 242 4.0 6.0 0.00 0.00 0.00 66 1021.0
20260830152804 76 236 3.0 7.0 0.00 0.00 0.00 68 1021.0
20260830152306 75 251 5.0 12.0 0.00 0.00 0.00 68 1021.0
20260830151805 76 268 3.0 8.0 0.00 0.00 0.00 67 1021.0
20260830150305 76 221 5.0 10.0 0.00 0.00 0.00 64 1021.0
20260830145806 76 214 7.0 10.0 0.00 0.00 0.00 66 1021.0
20260830144805 76 210 4.0 10.0 0.00 0.00 0.00 65 1021.0
20260830144306 77 205 5.0 12.0 0.00 0.00 0.00 62 1021.0
20260830142805 77 186 5.0 8.0 0.00 0.00 0.00 62 1021.0
20260830134806 76 201 5.0 7.0 0.00 0.00 0.00 65 1021.0
20260830133305 78 198 5.0 7.0 0.00 0.00 0.00 63 1022.0
20260830132805 77 211 5.0 7.0 0.00 0.00 0.00 64 1022.0